This is the latest recevied weather packets stored in our database for station/object W0AVQ. If no packets are shown the sender has not sent any weather packets the latest 10 day(s).
| Time | Temp. | Humidity | Pressure | Rain* | Wind** | Luminosity | Snow |
|---|---|---|---|---|---|---|---|
| 1777507898 | 17.78° C | 59% | 1016.3 hPa | 0 mm | - | 17 W/m² | - |
| 1777507596 | 17.78° C | 57% | 1016.2 hPa | 0 mm | - | 24 W/m² | - |
| 1777507292 | 17.78° C | 57% | 1016.2 hPa | 0 mm | - | 33 W/m² | - |
| 1777506990 | 17.78° C | 56% | 1016.2 hPa | 0 mm | - | 42 W/m² | - |
| 1777506687 | 17.78° C | 56% | 1016.4 hPa | 0 mm | - | 53 W/m² | - |
| 1777506383 | 18.33° C | 57% | 1016.5 hPa | 0 mm | - | 61 W/m² | - |
| 1777506079 | 17.78° C | 57% | 1016.5 hPa | 0 mm | - | 52 W/m² | - |
| 1777505775 | 18.33° C | 57% | 1016.4 hPa | 0 mm | - | 43 W/m² | - |
| 1777505472 | 18.33° C | 55% | 1016.5 hPa | 0 mm | - | 36 W/m² | - |
| 1777505169 | 18.89° C | 55% | 1016.5 hPa | 0 mm | - | 71 W/m² | - |
| 1777504865 | 18.89° C | 54% | 1016.5 hPa | 0 mm | - | 110 W/m² | - |
| 1777504563 | 19.44° C | 56% | 1016.5 hPa | 0 mm | - | 123 W/m² | - |
| 1777504258 | 19.44° C | 55% | 1016.6 hPa | 0 mm | - | 126 W/m² | - |
| 1777503954 | 20° C | 55% | 1016.6 hPa | 0 mm | - | 147 W/m² | - |
| 1777503650 | 20° C | 55% | 1016.5 hPa | 0 mm | - | 165 W/m² | - |
| 1777503347 | 19.44° C | 56% | 1016.5 hPa | 0 mm | - | 60 W/m² | - |
| 1777503043 | 19.44° C | 54% | 1016.2 hPa | 0 mm | - | 121 W/m² | - |
| 1777502741 | 19.44° C | 56% | 1016.5 hPa | 0 mm | - | 216 W/m² | - |
| 1777502438 | 19.44° C | 57% | 1016.5 hPa | 0 mm | - | 222 W/m² | - |
| 1777502135 | 19.44° C | 55% | 1016.5 hPa | 0 mm | - | 60 W/m² | - |
| 1777501833 | 19.44° C | 54% | 1016.3 hPa | 0 mm | - | 275 W/m² | - |
| 1777501529 | 20° C | 55% | 1016.3 hPa | 0 mm | - | 123 W/m² | - |
| 1777501227 | 19.44° C | 55% | 1016.3 hPa | 0 mm | - | 273 W/m² | - |
| 1777500924 | 20° C | 54% | 1016.2 hPa | 0 mm | - | 263 W/m² | - |
| 1777500621 | 19.44° C | 56% | 1016.1 hPa | 0 mm | - | 72 W/m² | - |
* Rain latest hour (hover to see other rain measurements)
** Current wind speed in m/s (hover to see current wind gust speed)